SL-16 DEB, 22616

Orbit data source: Space-Track

SL-16 DEB, 22616 is space debris in LEO originally from a launch on Fri, 26 Mar 1993 UTC launched from the Tyuratam Missile And Space Complex (TTMTR). Debris objects in space refer to the collection of defunct objects orbiting the Earth. Examples of debris include non-operational satellites, rocket bodies, and fragments generated from explosions, collisions, or faulty payload assembly.

Loading next visibility...
Identifier
22616, 1993-016AA
Orbit
LEO
Country
Flag of CISCIS
Related business
Manufacturer
Unknown
Mission
Spacecraft
Bus & Motor
Unknown
Mass
Unknown
Launch date (UTC)
1993-03-26 (33 years ago)
Launch vehicle
Unknown
Launch site
Tyuratam Missile And Space Complex (TTMTR)
Object type
Payload
Rocket body
Debris
Shape & HBR
Unknown shape, 0.1 m
Radar Cross Section
Medium (>0.1 m² and <1 m²)

Expand to show TLE details & history
Last TLE update: 15 hours ago

TLE from 15 hours ago
0 SL-16 DEB
1 22616U 93016AA  26255.01104907  .00000046  00000-0  83228-4 0  9995
2 22616  70.9938  87.8060 0185649  54.0508  99.3559 13.74044519677018
Epoch: 2026-09-12T00:15Z
TLE epoch observation values (Epoch: 2026-09-12T00:15:54.639Z)
Latitude
23.11475°
Longitude
-95.60834°
Altitude
1,012.023 km
Speed
7.336 km/s
True Right ascension
17h 17m 34s
True Declination
22° 59' 42"
Sunlit
Object was in daylight at epoch
Visualization orbit readout
Latitude
Unknown
Longitude
Unknown
Altitude
Unknown
Speed
Unknown
Apparent Right ascension
Unknown
Apparent Declination
Unknown
Sunlit
N/A
Visualization observer readout
Local Sidereal Time
07:40:24
Azimuth
Unknown
Elevation
Unknown
Doppler factor
Unknown
Orbital elements
Apogee altitude
1,119.711 km
Perigee altitude
846.391 km
Semi-major axis
7,361.188 km
Eccentricity
0.01856
Inclination
70.9938°
RAAN
87.806°
Arg. of periapsis
54.0508°
True anomaly
101.44663°
Mean anomaly
99.3559°
Eccentric anomaly
100.40211°
Mean motion
3.43654 °/min
Orbital period
104.76 mins
BSTAR
0.000083228
Loading maneuver chart data...
Computing Atmospheric mass density...
Loading historical data...
Loading historical data...
Loading historical data...
Loading historical data...
Loading historical data...
Loading historical data...
Loading historical data...

Documentation

Showing up to 5 results
|